sat.trackr.live / text

‹ back to catalog

STARLINK-37113

NORAD 68318 · 2026-057AA

PAYLOAD ACTIVE UNKNOWN

§ Identity

Operator
Country
US
Launch date
2026-03-20
Launch site
AFWTR
Launch vehicle
Mass (kg)
RCS (m²)

Purposes: comms

External: N2YO · Heavens-Above · Gunter

§ Orbital elements

Epoch: 2026-05-24T21:53:34.498176Z

Period
91.42 min
Inclination
97.2852°
Eccentricity
0.0001570
Mean motion
15.75231575 rev/d
Perigee alt
342.9 km
Apogee alt
345.0 km
Semi-major
6,722.1 km
B*
8.9630e-4
RAAN
271.1380°
Arg perigee
61.7223°
Mean anomaly
298.4200°
Rev number
1,028

§ Raw data

STARLINK-371131 68318U 26057AA  26144.91220484  .00135953  00000+0  89630-3 0  99972 68318  97.2852 271.1380 0001570  61.7223 298.4200 15.75231575 10284

JSON: /api/v1/satellites/68318 · /tle

For live sub-satellite position, see the globe view (requires WebGL).

§ Visibility from observer

Set your observer location to see the next 7 days of passes ≥ 10°. The values pass through the URL so the page stays shareable.

No JS? Fill the form by hand. The geolocation button needs JavaScript.